Regional Weather Roundup
Issued by NWS

Home | Current Version | Previous Version | Graphics & Text | Print | Product List | Glossary On
Versions: 1 2 3 4 5 6 7 8 9 10 11 12 13 14 15 16 17 18 19 20 21 22 23 24 25 26 27 28 29 30 31 32 33 34 35 36 37 38 39 40 41 42 43 44 45 46 47 48 49 50
367
ASUS45 KBOU 170107
RWRCO

WEATHER ROUNDUP FOR COLORADO
NATIONAL WEATHER SERVICE DENVER/BOULDER CO
700 PM MDT WED AUG 16 2017

NOTE: "FAIR" INDICATES FEW OR NO CLOUDS BELOW 12000 FEET WITH NO
SIGNIFICANT WEATHER AND/OR OBSTRUCTIONS TO VISIBILITY.

COZ001>005-013-030-031-170200-
...NORTHWEST COLORADO...

CITY           SKY/WX    TMP DP  RH WIND       PRES   REMARKS
CRAIG          FAIR      76  32  20 W7        30.15F
HAYDEN         FAIR      73  32  21 W10       30.20F
MEEKER         FAIR      77  20  12 NW10      30.16S
RABBIT EARS PA FAIR      52  36  54 NW10G16   30.45F
STEAMBOAT SPGS FAIR      70  38  30 W7        30.20S
WALDEN         PTSUNNY   57  43  58 E5        30.33R
$$

COZ006>008-011-170200-
...WEST CENTRAL VALLEYS...

CITY           SKY/WX    TMP DP  RH WIND       PRES   REMARKS
GRAND JUNCTION FAIR      82  36  19 NW14      30.03S
MONTROSE       FAIR      80  35  19 N5        30.12S
EAGLE          CLOUDY    72  36  26 SW5       30.20R
RIFLE          FAIR      78  39  24 N3        30.09S
DELTA          FAIR      87  26  11 W7        30.06F
NUCLA          FAIR      82  18   9 W7        30.15S
$$

COZ017>023-064>068-170200-
...SOUTHWEST COLORADO...

CITY           SKY/WX    TMP DP  RH WIND       PRES   REMARKS
DURANGO        FAIR      78  24  13 W10       30.17S
CORTEZ         FAIR      81  21  11 W5        30.13S
PAGOSA SPRINGS FAIR      75  19  12 SW6G16    30.25S
TELLURIDE      FAIR      68  22  17 W9        30.38R
WOLF CREEK PAS FAIR      52  28  40 SW16G23   30.59S
$$

COZ009-010-012-014-032>034-037-058>063-170200-
...CENTRAL COLORADO...

CITY           SKY/WX    TMP DP  RH WIND       PRES   REMARKS
ASPEN          FAIR      68  34  28 NW13      30.25R
BUENA VISTA    PTSUNNY   70  29  22 N10       30.25R
COPPER MTN     FAIR      52  30  43 NW12      30.55S
BERTHOUD PASS  LGT RAIN  34  32  93 NW21      30.57R WCI  22
COTTONWOOD PAS FAIR      64  23  20 CALM      30.39S
GUNNISON       FAIR      71  31  22 W12       30.25S
KREMMLING      PTSUNNY   73  37  27 CALM      30.26R
LEADVILLE      PTSUNNY   60  28  29 W9        30.39R
MONARCH PASS   FAIR      54  23  30 W16G22    30.65R
SALIDA         FAIR      74  31  20 W8        30.29R
SUNLIGHT       FAIR      52  32  46 W8G18     30.50S
WILKERSON PASS MOCLDY    46  39  76 E12       30.53R
$$

COZ069>075-170200-
...SAN LUIS VALLEY/SANGRE DE CRISTO MOUNTAINS...

CITY           SKY/WX    TMP DP  RH WIND       PRES   REMARKS
ALAMOSA        FAIR      72  37  28 CALM      30.22R
DEL NORTE      CLOUDY    67  36  31 NE8       30.27R
LA VETA PASS   NOT AVBL
SAGUACHE       MOCLDY    68  36  30 CALM      30.26R
$$

COZ035-036-038>040-170200-
...NORTHERN COLORADO FRONT RANGE...

CITY           SKY/WX    TMP DP  RH WIND       PRES   REMARKS
DENVER INTL AP MOCLDY    72  46  39 NE3       30.15R
DMNS CITY PARK   N/A     70  45  41 E7G14     30.15R
AURORA         LGT RAIN  69  47  44 N6        30.18R
FRONT RANGE AP MOCLDY    70  46  43 N6        30.16R
ERIE MUNI ARPT MOCLDY    74  43  33 CALM      30.18S
BOULDER MUN AP FAIR      72  45  37 CALM      30.14S
CENTENNIAL     LGT RAIN  68  46  45 NE8       30.17R
BROOMFIELD     MOCLDY    68  46  45 CALM      30.17R
FORT COLLINS   MOCLDY    69  52  54 SW6       30.13S
LONGMONT       FAIR      76  45  33 CALM      30.15R
$$

COZ041-046-047-076>085-087-088-170200-
...PIKES PEAK/PALMER DIVIDE AND SOUTHERN FOOTHILLS...

CITY           SKY/WX    TMP DP  RH WIND       PRES   REMARKS
COLO. SPRINGS  LGT RAIN  67  53  61 NE8       30.20S
A. F. ACADEMY  MOCLDY    66  46  47 NE6       30.22R
SCHRIEVER AFB  FAIR      66  50  55 N8        30.20S
CHEYENNE MTN   FAIR      60  49  66 NW10      30.19R
ELLICOTT       FAIR     N/A N/A N/A NE10      30.18S
FALCON         MOCLDY    64  48  56 NE6       30.25S
FORT CARSON    FAIR      67  54  62 N9        30.17R
LIMON          FAIR      71  46  40 N7        30.15R
MONUMENT HILL  MOCLDY    61  48  63 S3        30.27R
CANON CITY     CLEAR     75  50  41 NE16      30.11S
WALSENBURG     FAIR      75  46  35 NE15G21   30.15R
TRINIDAD       FAIR      75  48  38 SE13      30.12S
$$

COZ042>045-048>051-090-091-170200-
...NORTHEAST COLORADO...

CITY           SKY/WX    TMP DP  RH WIND       PRES   REMARKS
GREELEY ARPT   FAIR      73  50  44 SW8       30.11S
AKRON          FAIR      72  45  37 N8        30.10
BURLINGTON     FAIR      74  54  49 N9        30.07
WRAY           NOT AVBL
YUMA           FAIR      72  39  30 N8        30.06S
STERLING       FAIR      73  52  46 NE6       30.06R
HOLYOKE        FAIR      73  55  53 N10       30.06R
FORT MORGAN    FAIR      74  44  33 NE6       30.10R
$$

COZ086-089-092>099-170200-
...SOUTHEAST COLORADO...

CITY           SKY/WX    TMP DP  RH WIND       PRES   REMARKS
PUEBLO         FAIR      79  49  34 E12       30.08R
LA JUNTA       FAIR      79  50  36 NE10      30.07
LAMAR          FAIR      80  52  37 N7        30.01
SPRINGFIELD      N/A     76  55  48 NE6       30.07R
$$




USA.gov is the U.S. government's official web portal to all federal, state and local government web resources and services.